Wichita, KS

1:40 AM CDT on August 24, 2016 (GMT -0500)
McConnell Air Force Base

Weather History for KIAB - May, 2013

Change the Weather History Date:

Saturday, May 4, 2013

  Actual Average Record
Temperature  
Mean Temperature 43 °F -  
Max Temperature 46 °F 72 °F 101 °F (2014)
Min Temperature 40 °F 51 °F 39 °F (2005)
Degree Days  
Heating Degree Days 22    
Moisture  
Dew Point 39 °F    
Average Humidity 87    
Maximum Humidity 100    
Minimum Humidity 53    
Precipitation  
Precipitation 0.02 in - - ()
Sea Level Pressure  
Sea Level Pressure 30.00 in    
Wind  
Wind Speed 16 mph (North)    
Max Wind Speed 25 mph    
Max Gust Speed 33 mph    
Visibility 10 miles    
Events Rain    
Averages and records for this station are not official NWS values.
T = Trace of Precipitation, MM = Missing Value Source: NWS Daily Summary

Daily Weather History Graph

Daily Weather History Graph

Search for Another Location

Airport or City:

Trip Planner

Search our weather history database for the weather conditions in past years. The results will help you decide how hot, cold, wet, or windy it might be!

Date:

Astronomy

May. 04, 2013 Rise Set
Actual Time 6:29 AM CDT 8:22 PM CDT
Civil Twilight 6:01 AM CDT 8:50 PM CDT
Nautical Twilight 5:27 AM CDT 9:25 PM CDT
Astronomical Twilight 4:50 AM CDT 10:02 PM CDT
Moon 3:23 AM CDT (5/4) 3:26 PM CDT (5/4)
Length of Visible Light 14h 49m
Length of Day
13h 52m
Waning Crescent, 27% of the Moon is Illuminated
May 4
Waning Crescent
May 9
New
May 17
First Quarter
May 24
Full
May 31
Last Quarter

Hourly Weather History & Observations

Time (CDT) Temp. Windchill Dew Point Humidity Pressure Visibility Wind Dir Wind Speed Gust Speed Precip Events Conditions
12:58 AM 44.2 °F 39.7 °F 29.5 °F 56% 29.99 in 10.0 mi NNW 8.1 mph - N/A   Clear
1:58 AM 44.2 °F 41.0 °F 29.3 °F 56% 29.97 in 10.0 mi NW 5.8 mph - N/A   Clear
2:58 AM 43.9 °F 38.3 °F 29.3 °F 57% 29.96 in 10.0 mi NNW 10.4 mph 20.7 mph N/A   Clear
3:58 AM 43.7 °F 38.1 °F 29.3 °F 57% 29.94 in 10.0 mi NNW 10.4 mph - N/A   Clear
4:58 AM 43.7 °F 37.3 °F 27.7 °F 53% 29.93 in 10.0 mi NNW 12.7 mph - N/A   Overcast
5:58 AM 43.2 °F 35.6 °F 27.9 °F 55% 29.93 in 10.0 mi North 16.1 mph 25.3 mph N/A   Mostly Cloudy
6:27 AM 42.8 °F 34.8 °F 28.4 °F 57% 29.92 in 10.0 mi North 17.3 mph 25.3 mph N/A   Mostly Cloudy
6:45 AM 42.8 °F 34.8 °F 28.4 °F 57% 29.91 in 10.0 mi North 17.3 mph 24.2 mph N/A   Mostly Cloudy
6:58 AM 42.6 °F 35.6 °F 28.6 °F 58% 29.93 in 10.0 mi North 13.8 mph 21.9 mph 0.00 in   Mostly Cloudy
7:07 AM 42.8 °F 34.5 °F 26.6 °F 53% 29.92 in 10.0 mi North 18.4 mph 27.6 mph N/A Rain Light Rain
7:41 AM 42.8 °F 33.3 °F 28.4 °F 57% 29.92 in 10.0 mi North 24.2 mph 29.9 mph N/A   Mostly Cloudy
7:56 AM 42.8 °F 33.5 °F 30.2 °F 61% 29.91 in 10.0 mi North 23.0 mph 32.2 mph N/A   Overcast
7:58 AM 42.3 °F 32.4 °F 29.5 °F 61% 29.93 in 10.0 mi North 25.3 mph 29.9 mph 0.00 in   Overcast
8:11 AM 42.8 °F 33.5 °F 32.0 °F 66% 29.92 in 10.0 mi North 23.0 mph 32.2 mph N/A   Overcast
8:38 AM 41.0 °F 31.9 °F 32.0 °F 70% 29.93 in 10.0 mi North 19.6 mph 24.2 mph N/A   Overcast
8:47 AM 41.0 °F 31.1 °F 32.0 °F 70% 29.93 in 10.0 mi North 23.0 mph 28.8 mph N/A Rain Light Rain
8:58 AM 41.2 °F 31.6 °F 34.7 °F 78% 29.95 in 10.0 mi North 21.9 mph 33.4 mph 0.00 in Rain Light Rain
9:08 AM 41.0 °F 31.6 °F 35.6 °F 81% 29.93 in 10.0 mi North 20.7 mph 27.6 mph N/A Rain Light Rain
9:53 AM 41.0 °F 32.8 °F 39.2 °F 93% 29.94 in 10.0 mi North 16.1 mph - N/A Rain Light Rain
9:58 AM 40.6 °F 32.0 °F 38.7 °F 93% 29.96 in 10.0 mi North 17.3 mph 20.7 mph 0.00 in Rain Light Rain
10:00 AM 41.0 °F 31.1 °F 39.2 °F 93% 29.94 in 10.0 mi North 23.0 mph 27.6 mph N/A   Overcast
10:02 AM 41.0 °F 31.1 °F 39.2 °F 93% 29.94 in 10.0 mi North 23.0 mph 27.6 mph N/A Rain Light Rain
10:58 AM 41.2 °F 32.7 °F 40.8 °F 99% 29.98 in 10.0 mi North 17.3 mph - 0.01 in Rain Light Rain
11:28 AM 41.0 °F 31.9 °F 41.0 °F 100% 29.97 in 6.0 mi NNE 19.6 mph 26.5 mph N/A Rain Light Rain
11:38 AM 41.0 °F 32.2 °F 41.0 °F 100% 29.97 in 6.0 mi North 18.4 mph 25.3 mph N/A Rain Light Rain
11:43 AM 41.0 °F 32.2 °F 41.0 °F 100% 29.98 in 7.0 mi North 18.4 mph 26.5 mph N/A Rain Light Rain
11:48 AM 41.0 °F 32.2 °F 41.0 °F 100% 29.98 in 7.0 mi North 18.4 mph 26.5 mph N/A Rain Light Rain
11:58 AM 41.4 °F 31.9 °F 41.4 °F 100% 30.00 in 9.0 mi North 21.9 mph 28.8 mph 0.01 in Rain Light Rain
12:01 PM 41.0 °F 32.2 °F 41.0 °F 100% 29.98 in 10.0 mi North 18.4 mph 28.8 mph N/A   Overcast
12:36 PM 41.0 °F 30.9 °F 41.0 °F 100% 29.98 in 10.0 mi North 24.2 mph 32.2 mph N/A   Overcast
12:41 PM 42.8 °F 33.5 °F 42.8 °F 100% 29.98 in 10.0 mi North 23.0 mph 32.2 mph N/A   Overcast
12:58 PM 42.1 °F 33.1 °F 42.1 °F 100% 30.00 in 10.0 mi North 20.7 mph 29.9 mph 0.00 in   Overcast
1:12 PM 41.0 °F 31.4 °F 41.0 °F 100% 29.98 in 10.0 mi NW 21.9 mph 29.9 mph N/A   Overcast
1:13 PM 41.0 °F 31.4 °F 41.0 °F 100% 29.98 in 10.0 mi NW 21.9 mph 29.9 mph N/A   Overcast
1:14 PM 41.0 °F 31.9 °F 41.0 °F 100% 29.98 in 10.0 mi NW 19.6 mph 29.9 mph N/A   Overcast
1:15 PM 41.0 °F 32.2 °F 41.0 °F 100% 29.99 in 10.0 mi NNW 18.4 mph 29.9 mph N/A   Overcast
1:20 PM 41.0 °F 30.7 °F 41.0 °F 100% 29.99 in 10.0 mi North 25.3 mph 31.1 mph N/A   Overcast
1:58 PM 42.4 °F 33.1 °F 42.4 °F 100% 30.00 in 10.0 mi North 23.0 mph 32.2 mph N/A   Overcast
2:58 PM 43.5 °F 35.5 °F 43.0 °F 98% 30.00 in 10.0 mi North 18.4 mph 31.1 mph N/A   Overcast
3:18 PM 44.6 °F 36.1 °F 42.8 °F 93% 29.98 in 10.0 mi NNE 21.9 mph 26.5 mph N/A   Overcast
3:58 PM 45.1 °F 37.6 °F 42.6 °F 91% 30.01 in 10.0 mi NNE 18.4 mph 27.6 mph N/A   Overcast
4:28 PM 46.4 °F 38.7 °F 42.8 °F 87% 29.99 in 10.0 mi North 20.7 mph 27.6 mph N/A   Overcast
4:58 PM 46.6 °F - 43.2 °F 88% 30.01 in 10.0 mi North 16.1 mph - N/A   Overcast
5:48 PM 46.4 °F 39.0 °F 42.8 °F 87% 30.01 in 10.0 mi NNE 19.6 mph 25.3 mph N/A   Overcast
5:58 PM 45.9 °F 38.0 °F 43.7 °F 92% 30.04 in 10.0 mi NNE 20.7 mph 24.2 mph N/A   Overcast
6:58 PM 45.7 °F 39.1 °F 44.2 °F 95% 30.04 in 10.0 mi NNE 15.0 mph - N/A   Overcast
7:48 PM 44.6 °F 37.4 °F 44.6 °F 100% 30.04 in 10.0 mi NNE 16.1 mph - N/A   Overcast
7:58 PM 44.8 °F 37.7 °F 44.8 °F 100% 30.06 in 10.0 mi NNE 16.1 mph - N/A   Overcast
8:48 PM 44.6 °F 37.8 °F 44.6 °F 100% 30.05 in 10.0 mi NNE 15.0 mph - N/A   Overcast
8:58 PM 44.2 °F 36.7 °F 44.2 °F 100% 30.09 in 10.0 mi NNE 17.3 mph - N/A   Overcast
9:15 PM 44.6 °F 38.1 °F 44.6 °F 100% 30.06 in 10.0 mi NNE 13.8 mph - N/A   Light Drizzle
9:16 PM 44.6 °F 38.1 °F 44.6 °F 100% 30.06 in 10.0 mi NNE 13.8 mph - N/A   Light Drizzle
9:34 PM 44.6 °F 37.8 °F 44.6 °F 100% 30.07 in 10.0 mi NNE 15.0 mph - N/A   Overcast
9:58 PM 43.7 °F 37.3 °F 43.7 °F 100% 30.11 in 10.0 mi NNE 12.7 mph - 0.00 in   Overcast
10:16 PM 44.6 °F 38.4 °F 44.6 °F 100% 30.09 in 10.0 mi NE 12.7 mph - N/A   Overcast
10:26 PM 44.6 °F 37.8 °F 44.6 °F 100% 30.09 in 10.0 mi NE 15.0 mph - N/A   Overcast
10:58 PM 43.5 °F 37.1 °F 43.5 °F 100% 30.12 in 10.0 mi NNE 12.7 mph - 0.00 in   Overcast
11:12 PM 42.8 °F 35.8 °F 42.8 °F 100% 30.10 in 10.0 mi NNE 13.8 mph - N/A   Overcast
11:18 PM 42.8 °F 36.6 °F 42.8 °F 100% 30.10 in 10.0 mi NNE 11.5 mph - N/A   Overcast
11:48 PM 42.8 °F 36.2 °F 42.8 °F 100% 30.10 in 10.0 mi North 12.7 mph - N/A   Overcast
11:53 PM 42.8 °F 37.0 °F 42.8 °F 100% 30.10 in 10.0 mi North 10.4 mph - N/A   Overcast
11:58 PM 43.2 °F 37.4 °F 43.2 °F 100% 30.13 in 10.0 mi North 10.4 mph - 0.00 in   Overcast